sat.trackr.live / text

‹ back to catalog

STARLINK-3993

NORAD 52692 · 2022-053AN

PAYLOAD ACTIVE UNKNOWN

§ Identity

Operator
Country
US
Launch date
2022-05-18
Launch site
AFETR
Launch vehicle
Mass (kg)
RCS (m²)

Purposes: comms

External: N2YO · Heavens-Above · Gunter

§ Orbital elements

Epoch: 2026-05-25T01:41:39.712128Z

Period
95.44 min
Inclination
53.2131°
Eccentricity
0.0000985
Mean motion
15.08846813 rev/d
Perigee alt
539.0 km
Apogee alt
540.4 km
Semi-major
6,917.9 km
B*
-1.6831e-4
RAAN
160.9627°
Arg perigee
81.4972°
Mean anomaly
278.6132°
Rev number
22,268

§ Raw data

STARLINK-39931 52692U 22053AN  26145.07059852 -.00002966  00000+0 -16831-3 0  99962 52692  53.2131 160.9627 0000985  81.4972 278.6132 15.08846813222688

JSON: /api/v1/satellites/52692 · /tle

For live sub-satellite position, see the globe view (requires WebGL).

§ Visibility from observer

Set your observer location to see the next 7 days of passes ≥ 10°. The values pass through the URL so the page stays shareable.

No JS? Fill the form by hand. The geolocation button needs JavaScript.